Regional Weather Roundup
Issued by NWS

Home | Current Version | Previous Version | Graphics & Text | Print | Product List | Glossary On
Versions: 1 2 3 4 5 6 7 8 9 10 11 12 13 14 15 16 17 18 19 20 21 22 23 24 25 26 27 28 29 30 31 32 33 34 35 36 37 38 39 40 41 42 43 44 45 46 47 48 49 50
000
ASUS43 KOAX 240410
RWRNE

WEATHER ROUNDUP FOR NEBRASKA
NATIONAL WEATHER SERVICE OMAHA NE
1100 PM CDT TUE AUG 23 2016

NOTES: SATELLITE DATA IS BEING USED TO AUGMENT CLOUD COVER ABOVE
       12000 FEET.
       "FAIR" INDICATES FEW OR NO CLOUDS BELOW 12,000 FEET WITH NO
       SIGNIFICANT WEATHER AND/OR OBSTRUCTIONS TO VISIBILITY.

  * THESE STATIONS DO NOT REPORT WEATHER SUCH AS RAIN...SNOW OR FOG.

NEZ001>004-019>022-054>056-240500-
NEBRASKA PANHANDLE

CITY           SKY/WX    TMP DP  RH WIND       PRES   REMARKS
SCOTTSBLUFF    PTCLDY    60  45  57 E3        30.08R
ALLIANCE       CLOUDY    58  39  49 CALM      30.06R
CHADRON        CLEAR     56  31  38 CALM      30.04R
KIMBALL        CLOUDY    63  42  45 E7        30.13R
SIDNEY         CLEAR     63  40  42 E3        30.10R
$$

NEZ057>060-069>072-079>082-240500-
SOUTHWEST NEBRASKA

CITY           SKY/WX    TMP DP  RH WIND       PRES   REMARKS
NORTH PLATTE   CLEAR     58  49  72 CALM      29.98R
IMPERIAL       CLEAR     63  46  54 NE9       30.00R
LEXINGTON      CLEAR     64  59  83 NW5       29.94R
MCCOOK         CLEAR     68  52  56 N12       29.95R
OGALLALA       CLEAR     66  41  39 NE6       30.01R
$$

NEZ005>010-023>029-035>040-094-240500-
NORTH CENTRAL NEBRASKA

CITY           SKY/WX    TMP DP  RH WIND       PRES   REMARKS
VALENTINE      CLOUDY    59  43  55 W7        29.97R
AINSWORTH      CLEAR     66  47  51 NW5       29.97R
BROKEN BOW     CLEAR     62  54  74 N9        29.94R
O`NEILL        CLEAR     67  57  71 W6        29.91R
ORD            CLEAR     68  58  70 NW7       29.90R
THEDFORD       CLEAR     61  46  58 W7        29.99S
$$

NEZ041-046>049-061>064-073>077-083>087-240500-
SOUTH CENTRAL NEBRASKA

CITY           SKY/WX    TMP DP  RH WIND       PRES   REMARKS
GRAND ISLAND   CLEAR     75  69  81 NW9       29.88R
AURORA         CLEAR     75  72  88 SW7       29.86R
HASTINGS       CLEAR     77  69  76 S3        29.88R
HEBRON         CLEAR     75  66  73 S12G17    29.84S
HOLDREGE       CLEAR     72  56  57 N9        29.91R
KEARNEY *      CLEAR     75  55  50 N10       29.89R
YORK           CLEAR     73  68  83 CALM      29.86R
$$

NEZ011>018-030>034-042>045-240500-
NORTHEAST NEBRASKA

CITY           SKY/WX    TMP DP  RH WIND       PRES   REMARKS
NORFOLK        TSTM      71  67  87 N6        29.92R FOG
ALBION         MOCLDY    74  62  66 CALM      29.88R
BLAIR          CLOUDY    65  65  97 S8        29.88F
FREMONT        LGT RAIN  67  63  87 SW9       29.86F
TEKAMAH        CLOUDY    67  63  87 S12       29.87R
WAYNE          CLOUDY    71  67  85 S8        29.86R
$$

NEZ050>053-065>068-078-088>093-240500-
SOUTHEAST NEBRASKA

CITY           SKY/WX    TMP DP  RH WIND       PRES   REMARKS
LINCOLN        CLOUDY    69  64  84 NE25G37   29.88R
OMAHA EPPLEY   TSTM      66  63  90 CALM        N/A
BEATRICE       CLOUDY    77  63  62 S13G20    29.86R
FALLS CITY     TSTM      77  74  90 S20G26    29.91R FOG
NEBRASKA CITY  CLOUDY    77  72  85 S12       29.84F
PLATTSMOUTH    CLOUDY    73  66  80 NE20      29.85R
$$

NEZ044-045-051>053-067-240500-
OMAHA AREA

CITY           SKY/WX    TMP DP  RH WIND       PRES   REMARKS
OMAHA EPPLEY   TSTM      66  63  90 CALM        N/A
BLAIR          CLOUDY    65  65  97 S8        29.88F
FREMONT        LGT RAIN  67  63  87 SW9       29.86F
MILLARD        TSTM      69  66  92 E3        29.87F
OFFUTT AFB     TSTM      68  68 100 W17G24    29.93R VSB 3/4
PLATTSMOUTH    CLOUDY    73  66  80 NE20      29.85R
WAHOO          CLOUDY    68  63  86 E12       29.89S
$$




USA.gov is the U.S. government's official web portal to all federal, state and local government web resources and services.